[[{"header":{"parameterUnit":"m.s-1","parameterCategory":1,"la1":30.2991,"la2":30.254,"lo1":-89.0895,"lo2":-89.0444,"dy":0.0017,"dx":0.0017,"nx":28,"ny":28,"refTime":"2025-01-16T09:00:00:Z","depth":0,"parameterNumber":2,"parameterNumberName":"U-component_of_WINDS"},"data":[0,0,0,0,0,0,0,0,0,0,0,0,0,0,0,0,0,0,0,0,0,0,0,0,0,0,0,0,0,0,0,0,0,0,0,0,0,0,0,0,0,0,0,0,0,0,0,0,0,0,0,0,0,0,0,0,0,0,0.9951,0.9951,0,0.9967,0.9967,0.9967,0.9945,0.9944,0.9943,0.9942,0.9958,0.9959,0.996,0,0,0,0,0,0,0,0,0,0,0,0,0,0.9903,0.9904,0.9951,0.9951,0.9952,0.9967,0.9967,0.9967,0.9945,0.9944,0.9943,0.9942,0.9957,0.9959,0.996,0,0,0,0,0,0,0,0,0,0,0,0,0,0.9922,0.9904,0.9951,0.9942,0.9942,0.9967,0.9967,0.9967,0.9945,0.9944,0.9943,0.9942,0.9957,0.9959,0.996,0.9995,0,0,0.9966,0.9966,0,0,0,0,0,0,0,0,0.9921,0.9923,0.9943,0.9943,0.9942,0.9953,0.9955,0.9976,0.9945,0.9944,0.9942,0.9941,0.9957,0.9959,0.9964,0.9995,0.9996,0.9966,0.9967,0.9968,0.9968,0,0,0,0,0,0,0,0.9919,0.9923,0.9957,0.9944,0.9943,0.9938,0.9939,0.9959,0.9957,0.9944,0.9942,0.9944,0.9956,0.9963,0.9964,0.9996,0.9966,0.9967,0.9968,0.9969,1.0058,1.0059,0,0,0,0,0,0,0.9919,0.9922,0.9957,0.9958,0.9928,0.994,0.9941,0.995,0.9957,0.9956,0.9945,0.9943,0.996,0.9962,0.9965,1.0006,0.9967,0.9969,0.997,1.0056,1.0058,1.0059,0,0,0,0,0,0,0.9918,0.9922,0.9956,0.9939,0.9943,0.9942,0.9952,0.9951,0.9957,0.9958,0.9957,0.9952,0.9959,0.9962,0.9988,1.0007,0.997,0.9971,1.0055,1.0057,1.0059,1.0089,0,0,0,0,0,0,0.9917,0.9922,0.9935,0.994,0.9944,0.9979,0.9954,0.9953,0.9961,0.9958,0.9964,0.9964,0.9959,0.9985,0.9989,1.0008,0.9973,1.0053,1.0056,1.0058,1.0086,1.0092,1.0097,0,0,0,0,0,0.9915,0.9943,0.9936,0.994,0.996,0.998,0.9982,0.9976,0.9962,0.9975,0.9976,0.9963,1.0004,0.9988,0.9992,1.0012,1.0052,1.0055,1.0058,1.0084,1.0091,1.0096,0,0,0,0,0,0,0.994,0.9943,0.9936,0.9965,0.9973,0.9976,0.9992,0.9983,0.9995,0.9992,0.9983,0.9985,1.0012,1.0015,0.9997,1.0046,1.0025,1.0029,1.0044,1.005,1.0055,1.0054,0.9974,0,0,0,0,0,0.9949,0.9964,0.9966,0.9992,0.9996,0.9994,1.0002,0.9997,1.0004,1.0007,1.0009,1.0017,1.0031,1.0041,1.0054,1.0086,1.0088,1.0102,1.0107,1.0111,1.0115,1.0134,1.0141,1.0069,1.0069,1.0069,0,0,0.9967,0.9971,0.9981,0.9997,1.0002,1.0019,0.9997,1.0015,1.0028,1.001,1.0034,1.0036,1.0044,1.0073,1.0087,1.0076,1.0135,1.0115,1.0119,1.012,1.0138,1.0145,1.0151,1.0071,1.0071,1.007,0,0,1.0009,1.0013,1.0036,1.0042,1.005,1.0049,1.0054,1.0059,1.006,1.0085,1.0072,1.0087,1.0111,1.0118,1.0124,1.0171,1.016,1.0175,1.0202,1.022,1.0226,1.0231,1.0249,1.0255,1.0179,1.0179,1.0179,0,1.0031,1.0056,1.0049,1.0069,1.0077,1.0062,1.0086,1.0091,1.0103,1.0109,1.0097,1.0129,1.0133,1.0165,1.0176,1.0181,1.0188,1.0175,1.0226,1.0231,1.0235,1.0252,1.0259,1.0181,1.018,1.018,1.018,0,1.0083,1.0101,1.0118,1.0131,1.0141,1.0162,1.0159,1.017,1.0164,1.0164,1.0189,1.0194,1.0208,1.0215,1.0209,1.0246,1.024,1.0227,1.0206,1.0244,1.026,1.0266,1.0183,1.0183,1.0182,1.0182,0,0,1.0142,1.0151,1.0157,1.0164,1.0172,1.0185,1.0207,1.0221,1.0231,1.024,1.0258,1.028,1.0269,1.0276,1.0271,1.0287,1.0325,1.0272,1.0272,1.0283,1.0368,1.0378,1.0385,1.0318,1.0319,1.032,1.0367,0,1.0185,1.0222,1.0217,1.0252,1.0269,1.0256,1.0274,1.0281,1.0282,1.0296,1.0297,1.0313,1.0296,1.0301,1.0316,1.0317,1.0342,1.0313,1.0335,1.0336,1.0335,1.0393,1.0404,1.0449,1.0373,1.0374,1.0375,0,1.024,1.0252,1.029,1.0297,1.0304,1.032,1.0334,1.0348,1.0356,1.0355,1.0364,1.0357,1.0378,1.0357,1.0387,1.0368,1.0376,1.0379,1.038,1.0383,1.0359,1.0398,1.0462,1.047,1.0384,1.0384,1.0383,0,1.0281,1.0306,1.0332,1.0337,1.0346,1.0358,1.0362,1.0369,1.0379,1.0391,1.0397,1.0411,1.0419,1.043,1.0427,1.0411,1.0458,1.0436,1.0459,1.0459,1.047,1.047,1.0538,1.0474,1.0474,1.0474,1.0474,0,1.033,1.0354,1.035,1.0367,1.0393,1.0387,1.0413,1.0416,1.0423,1.0439,1.0428,1.0444,1.0438,1.0453,1.0451,1.0477,1.048,1.0481,1.048,1.0482,1.0483,1.0489,1.0486,1.0476,1.0475,1.0475,1.0475,0,1.038,1.0378,1.0406,1.0412,1.0414,1.0434,1.0439,1.0454,1.0454,1.0475,1.048,1.048,1.0498,1.0495,1.0515,1.0513,1.0547,1.0541,1.0544,1.0543,1.0567,1.0565,1.0642,1.0652,1.0581,1.0582,1.0582,0,1.0412,1.043,1.0439,1.0449,1.0454,1.0471,1.0481,1.0476,1.0487,1.0499,1.0513,1.053,1.0543,1.0573,1.0575,1.059,1.0586,1.0612,1.0588,1.0591,1.0588,1.0587,1.059,1.0617,1.0618,1.0618,1.0619,0,1.047,1.0468,1.0483,1.0498,1.0511,1.0522,1.0532,1.0541,1.0537,1.055,1.0569,1.0579,1.06,1.0618,1.0632,1.0637,1.0628,1.0626,1.0633,1.0636,1.0637,1.0638,1.0558,1.0624,1.0624,1.0623,1.0623,1.0623,1.0513,1.0529,1.0537,1.0555,1.0562,1.0572,1.0587,1.0589,1.0605,1.0622,1.0618,1.0639,1.0648,1.0667,1.0673,1.069,1.068,1.0689,1.0692,1.0694,1.0698,1.0634,1.0692,1.0692,1.0692,1.0692,1.0692,0,1.0571,1.0576,1.0592,1.0607,1.0621,1.0611,1.0622,1.0634,1.0653,1.0663,1.0676,1.0698,1.0716,1.0719,1.0736,1.0749,1.0745,1.0753,1.0753,1.0754,1.0705,1.0698,1.0756,1.0756,1.0756,1.0756,1.0756,1.0756,1.0603,1.063,1.063,1.0661,1.0665,1.0687,1.0694,1.0704,1.0711,1.0736,1.0751,1.0753,1.076,1.0777,1.0793,1.0794,1.0801,1.0811,1.081,1.0764,1.0757,1.0751,1.0745,1.0812,1.0812,1.0858,1.0859,1.0859]},{"header":{"parameterUnit":"m.s-1","parameterCategory":1,"la1":30.2991,"la2":30.254,"lo1":-89.0895,"lo2":-89.0444,"dy":0.0017,"dx":0.0017,"nx":28,"ny":28,"refTime":"2025-01-16T09:00:00:Z","depth":0,"parameterNumber":3,"parameterNumberName":"V-component_of_WINDS"},"data":[0,0,0,0,0,0,0,0,0,0,0,0,0,0,0,0,0,0,0,0,0,0,0,0,0,0,0,0,0,0,0,0,0,0,0,0,0,0,0,0,0,0,0,0,0,0,0,0,0,0,0,0,0,0,0,0,0,0,-1.9742,-1.9742,0,-1.9793,-1.9794,-1.9795,-1.9778,-1.9776,-1.9775,-1.9774,-1.9826,-1.9828,-1.9831,0,0,0,0,0,0,0,0,0,0,0,0,0,-1.9628,-1.963,-1.9742,-1.9743,-1.9743,-1.9793,-1.9794,-1.9795,-1.9778,-1.9776,-1.9775,-1.9774,-1.9825,-1.9828,-1.9831,0,0,0,0,0,0,0,0,0,0,0,0,0,-1.9678,-1.9631,-1.9742,-1.9741,-1.9741,-1.9793,-1.9794,-1.9795,-1.9778,-1.9776,-1.9775,-1.9773,-1.9824,-1.9828,-1.9831,-1.9887,0,0,-1.9843,-1.9844,0,0,0,0,0,0,0,0,-1.9676,-1.9683,-1.974,-1.9741,-1.9742,-1.9777,-1.9773,-1.9826,-1.9779,-1.9764,-1.9774,-1.9772,-1.9811,-1.9816,-1.9829,-1.989,-1.9892,-1.9843,-1.9845,-1.9847,-1.9848,0,0,0,0,0,0,0,-1.9672,-1.968,-1.9762,-1.9741,-1.9742,-1.9738,-1.9743,-1.9783,-1.9796,-1.9765,-1.9764,-1.977,-1.9811,-1.9826,-1.983,-1.9893,-1.9843,-1.9846,-1.9848,-1.985,-2.0002,-2.0004,0,0,0,0,0,0,-1.9668,-1.9677,-1.9761,-1.9764,-1.9704,-1.9741,-1.9747,-1.9768,-1.9796,-1.9799,-1.9772,-1.9769,-1.982,-1.9826,-1.9832,-1.9899,-1.9847,-1.985,-1.9852,-2.0,-2.0002,-2.0004,0,0,0,0,0,0,-1.9666,-1.9676,-1.9758,-1.972,-1.9731,-1.9745,-1.9768,-1.9769,-1.9784,-1.9801,-1.9803,-1.9784,-1.9819,-1.9827,-1.9874,-1.9901,-1.9852,-1.9855,-1.9998,-2.0001,-2.0003,-2.0035,0,0,0,0,0,0,-1.9663,-1.9675,-1.9697,-1.9721,-1.9733,-1.98,-1.977,-1.9772,-1.979,-1.9788,-1.9813,-1.9816,-1.9818,-1.9868,-1.9877,-1.9905,-1.9858,-1.9995,-1.9999,-2.0002,-2.0031,-2.0038,-2.0044,0,0,0,0,0,-1.9659,-1.9703,-1.9698,-1.9708,-1.976,-1.9801,-1.9808,-1.9811,-1.9793,-1.9814,-1.9825,-1.9815,-1.9897,-1.9873,-1.9883,-1.9913,-1.9994,-1.9998,-2.0002,-2.0028,-2.0037,-2.0044,0,0,0,0,0,0,-1.9681,-1.9706,-1.9701,-1.9754,-1.9776,-1.9798,-1.9826,-1.9819,-1.9846,-1.9843,-1.9845,-1.985,-1.9899,-1.991,-1.9884,-1.9968,-1.9942,-1.9949,-1.9959,-1.9967,-1.9973,-1.997,-1.9861,0,0,0,0,0,-1.9692,-1.9724,-1.9744,-1.979,-1.9801,-1.9812,-1.983,-1.983,-1.9852,-1.9861,-1.9876,-1.9897,-1.9928,-1.9948,-1.9977,-2.0033,-2.0038,-2.0058,-2.0064,-2.0069,-2.0075,-2.0106,-2.0115,-2.0018,-2.0018,-2.0018,0,0,-1.9716,-1.9733,-1.9753,-1.9795,-1.9811,-1.9844,-1.9819,-1.9855,-1.9879,-1.9866,-1.9912,-1.9923,-1.9948,-1.9999,-2.0023,-2.001,-2.0103,-2.0075,-2.0079,-2.0082,-2.0111,-2.012,-2.0128,-2.0021,-2.002,-2.002,0,0,-1.9775,-1.9792,-1.9832,-1.9849,-1.9875,-1.9882,-1.9892,-1.9915,-1.9923,-1.9968,-1.9959,-1.9988,-2.0041,-2.0059,-2.0075,-2.0142,-2.0133,-2.0151,-2.0185,-2.0215,-2.0222,-2.0229,-2.0253,-2.0262,-2.0156,-2.0156,-2.0157,0,-1.9801,-1.9851,-1.9853,-1.989,-1.9908,-1.9898,-1.9939,-1.9955,-1.9989,-2.0002,-1.9988,-2.0054,-2.007,-2.0126,-2.0142,-2.0155,-2.0166,-2.0148,-2.0221,-2.0228,-2.0234,-2.0257,-2.0266,-2.0158,-2.0158,-2.0158,-2.0158,0,-1.9881,-1.9916,-1.9945,-1.9979,-2.0,-2.0039,-2.0046,-2.0068,-2.0066,-2.0075,-2.0122,-2.014,-2.0173,-2.0186,-2.0185,-2.0242,-2.0234,-2.022,-2.0194,-2.0245,-2.0267,-2.0276,-2.0161,-2.0161,-2.016,-2.016,0,0,-1.9957,-1.9991,-2.0002,-2.0017,-2.0045,-2.0072,-2.011,-2.0142,-2.0161,-2.0185,-2.0217,-2.0262,-2.025,-2.0268,-2.0268,-2.0294,-2.0347,-2.0278,-2.0278,-2.029,-2.0412,-2.0422,-2.0432,-2.0341,-2.0343,-2.0344,-2.041,0,-2.0019,-2.0086,-2.0089,-2.015,-2.0182,-2.0174,-2.0207,-2.0227,-2.0236,-2.0264,-2.0274,-2.0306,-2.0287,-2.0298,-2.0324,-2.0335,-2.0371,-2.033,-2.0371,-2.0373,-2.0366,-2.0444,-2.0455,-2.0516,-2.0418,-2.042,-2.0421,0,-2.0101,-2.0128,-2.0192,-2.0216,-2.0229,-2.0259,-2.0289,-2.0317,-2.034,-2.0344,-2.0365,-2.0362,-2.0401,-2.0373,-2.0427,-2.0399,-2.0416,-2.0424,-2.0426,-2.0431,-2.04,-2.0451,-2.0535,-2.0545,-2.0434,-2.0433,-2.0432,0,-2.015,-2.0202,-2.0247,-2.0261,-2.0289,-2.0311,-2.0324,-2.0345,-2.0365,-2.0391,-2.0404,-2.0434,-2.0451,-2.0475,-2.048,-2.0459,-2.0534,-2.0507,-2.0539,-2.0539,-2.0555,-2.0554,-2.0644,-2.0565,-2.0565,-2.0565,-2.0565,0,-2.0219,-2.0259,-2.027,-2.0298,-2.0342,-2.0345,-2.0389,-2.0401,-2.042,-2.045,-2.0444,-2.0472,-2.0477,-2.0506,-2.051,-2.0555,-2.0562,-2.0567,-2.0568,-2.0568,-2.0567,-2.0579,-2.0575,-2.0567,-2.0567,-2.0566,-2.0566,0,-2.0282,-2.029,-2.034,-2.0363,-2.037,-2.0402,-2.0422,-2.0448,-2.0456,-2.0495,-2.0504,-2.0517,-2.0551,-2.0558,-2.0599,-2.0601,-2.0654,-2.065,-2.0646,-2.0646,-2.0678,-2.0675,-2.0779,-2.0793,-2.0705,-2.0706,-2.0706,0,-2.0326,-2.0356,-2.0383,-2.0403,-2.0417,-2.0449,-2.0469,-2.0473,-2.0495,-2.0524,-2.0547,-2.0581,-2.0608,-2.0663,-2.0676,-2.0707,-2.0704,-2.0739,-2.0709,-2.0708,-2.0705,-2.0704,-2.0707,-2.0744,-2.0745,-2.0746,-2.0747,0,-2.0403,-2.0406,-2.0436,-2.0467,-2.0491,-2.0516,-2.0539,-2.0555,-2.0563,-2.0587,-2.0622,-2.0643,-2.0685,-2.0718,-2.075,-2.0763,-2.0756,-2.0756,-2.0765,-2.0766,-2.0763,-2.0766,-2.0662,-2.0754,-2.0753,-2.0752,-2.0752,-2.0752,-2.0458,-2.0485,-2.0509,-2.0542,-2.056,-2.0582,-2.0608,-2.062,-2.065,-2.0684,-2.0685,-2.0723,-2.0746,-2.0787,-2.0802,-2.0833,-2.0822,-2.0835,-2.0838,-2.0842,-2.0845,-2.0758,-2.0838,-2.0838,-2.0838,-2.0838,-2.0837,0,-2.0536,-2.0551,-2.0581,-2.0614,-2.064,-2.0632,-2.0658,-2.068,-2.0714,-2.0736,-2.0763,-2.0804,-2.0836,-2.0852,-2.0884,-2.0905,-2.0903,-2.0914,-2.0913,-2.0916,-2.0852,-2.0842,-2.0915,-2.0915,-2.0915,-2.0915,-2.0915,-2.0915,-2.058,-2.0625,-2.0631,-2.0685,-2.0699,-2.0737,-2.0753,-2.0773,-2.0791,-2.0837,-2.0864,-2.0874,-2.0893,-2.0927,-2.0957,-2.0961,-2.0973,-2.0985,-2.0987,-2.0928,-2.092,-2.0913,-2.0903,-2.0988,-2.0988,-2.1048,-2.1049,-2.1049]}]]